sat.trackr.live / text

‹ back to catalog

STARLINK-35898

NORAD 66826 · 2025-280F

PAYLOAD ACTIVE UNKNOWN

§ Identity

Operator
Country
US
Launch date
2025-12-02
Launch site
AFWTR
Launch vehicle
Mass (kg)
RCS (m²)

Purposes: comms

External: N2YO · Heavens-Above · Gunter

§ Orbital elements

Epoch: 2026-09-20T06:04:16.245984Z

Period
96.11 min
Inclination
70.0007°
Eccentricity
0.0002902
Mean motion
14.98344337 rev/d
Perigee alt
570.0 km
Apogee alt
574.0 km
Semi-major
6,950.1 km
B*
1.8973e-4
RAAN
203.7289°
Arg perigee
269.0793°
Mean anomaly
91.0033°
Rev number
4,522

§ Raw data

STARLINK-358981 66826U 25280F   26263.25296581  .00002172  00000+0  18973-3 0  99942 66826  70.0007 203.7289 0002902 269.0793  91.0033 14.98344337 45229

JSON: /api/v1/satellites/66826 · /tle

For live sub-satellite position, see the globe view (requires WebGL).

§ Visibility from observer

Set your observer location to see the next 7 days of passes ≥ 10°. The values pass through the URL so the page stays shareable.

No JS? Fill the form by hand. The geolocation button needs JavaScript.